User: anonymous   Login
Location: Haliburton Scout Reserve
(45.0900°N, 78.3200°W)
Time: 07:54:51
(UTC-04:00)
Language:

FALCONSAT 3 - Orbit

View from above orbital plane
View from above orbital plane
View from above satellite
View from above satellite

Ground track
Ground track

The orbit data is extracted from the following two-line orbital elements,

1 30776U 07006E   22141.51090574  .00055213  00000-0  89680-3 0  9997
2 30776  35.4322  76.5523 0003341 249.3634 110.6739 15.51607515845396
Epoch (UTC): 21 May 2022 12:15:42
Eccentricity: 0.0003341
inclination: 35.4322°
perigee height: 410 km
apogee height: 414 km
right ascension of ascending node: 76.5523°
argument of perigee: 249.3634°
revolutions per day: 15.51607515
mean anomaly at epoch: 110.6739°
orbit number at epoch: 84539

The dashed part of the orbit path shows where the satellite is in the earth's shadow,  

DLR